Погода в Караганде

Погода в Караганде : погода сейчас, прогноз погоды и архив. Всё, что Вы хотите узнать о погоде в Караганде!

Поиск расширенной информации на нашем сайте:

Другие новости

Новости СМИ2

Главная страница сайта

Новости сайта

02.10.2013

Напоминаем, что на нашем новом сайте вы можете получить высокодетализированные прогнозы погоды по пунктам России, СНГ и мира (включающие важные для авиации метеовеличины, такие как направление и скорость ветра, видимость, явления погоды, количество и форма облачности, нижняя и верхняя граница облачности), а также ознакомиться с разнообразными материалами по авиационной метеорологии и подборкой полезных ссылок на эту тему.

Сайт Метеоцентр.Азия посвящён разработке технологий оптимизации авиаметеорологического обслуживания, включая проектирование и перспективное создание нескольких автоматизированных авиаметеорологических систем:
- система выпуска высокодетальных прогностических карт явлений погоды для нижнего воздушного пространства по России и ближнему зарубежью;
- система верификации прогнозов TAF (выпускаемых синоптиками официальных АМСГ РФ и ближнего зарубежья) и AUTOTAF (выпускаемых сайтом Метеоцентр.Азия) - выявление ошибок, онлайн-сопоставление с фактической погодой METAR, автоматическое внесение коррективов в прогнозы при резком отклонении фактической погоды от прогноза, подсчёт оправдываемости прогнозов по элементам и в целом;
- система обработки, анализа и отображения авиаметеорологической информации для применения провайдерами метеорологической информации.

Рекомендуем: управление репутацией в интернете

Погода в Караганде - сегодня

Время (UTC), дата Ветер
(°,м/с) 
Видим.   Явления Облачность Т
(°С)
Тd
(°С)
f(%) Тe
(°С)
Pmin
(гПа)
dP
(гПа)
Po
(мм)
O2
(г/м3)
Тmin Tmax R s Состояние
почвы
09 23.04.17 210 (ЮЗ) 20000 м    6/0 средняя, верхняя 
[Ac trans|Ci fib]
+18.5 -2.8 23 +19  1014.7  -2  714  270           
12 23.04.17 260 (З) 7{16}  20000 м  в посл. час ливневой дождь  5/5 600 м кучево-дожд. 
[Cb cap]
+15.3 +5.7 53 +15  1014.8  -0.4  713  271           
15 23.04.17 280 (З) 20000 м    1/0 верхняя 
[Ci fib]
+10.7 -0.2 47 +10  1017.8  1.7  715  277    +20.6  0.0     
18 23.04.17 тихо ()   20000 м    ясно 
+4.2 +0.7 78 +4  1020.4  716  284    +20.6  0.0     
21 23.04.17 210 (ЮЗ) 20000 м    ясно 
+4.5 +1 78 +4  1021.4  716  284           
00 24.04.17 230 (ЮЗ) 20000 м    ясно 
+3.4 +0.9 84 +3  1022.7  0.9  717  285           
03 24.04.17 270 (З) 20000 м    5/5 1000 м 
[Sc]
+6.7 +0.5 65 +5  1023.5  1.5  718  282           
06 24.04.17 270 (З) 20000 м    1/1 1000 м 
[Cu hum]
+11 -0.7 44 +10  1023.4  0.9  719  278  +3.4         
09 24.04.17 290 (З) 20000 м    3/0 верхняя 
[Ci fib]
+15 -1.1 33 +15  1022.8  0.3  719  275           
12 24.04.17 320 (СЗ) 20000 м    6/0 верхняя 
[Ci fib]
+16.1 -0.2 33 +16  1022.1  -0.5  719  273           
15 24.04.17 050 (СВ) 20000 м    8/0 верхняя 
[Ci sp]
+11.7 +0 44 +13  1023.5  0.4  719  278    +17.1       
18 24.04.17 тихо ()   20000 м    ясно 
+7.4 -0.1 59 +7  1025.1  0.6  719  282    +17.1       
21 24.04.17 тихо ()   20000 м    ясно 
+5.7 +1 72 +6  1025.1  -0.4  719  284           
00 25.04.17 130 (ЮВ) 20000 м    ясно 
+5.5 -0.1 67 +5  1024.1  -1  718  284           
03 25.04.17 140 (ЮВ) 20000 м    ясно 
+13.4 +0.3 41 +14  1022.4  0.2  718  276           
06 25.04.17 150 (ЮВ) 20000 м    ясно 
+21 -1.7 22 +21  1020.4  -0.3  718  269  +5         
09 25.04.17 140 (ЮВ) 20000 м    1/0 верхняя 
[Ci fib]
+24.6 -3.8 15 +25  1017.9  -1.6  717  265           
12 25.04.17 130 (ЮВ) 20000 м    ясно 
+25.2 -1.3 17 +25  1016.6  -1.2  716  264           
15 25.04.17 120 (ЮВ) 20000 м    3/0 верхняя 
[Ci fib]
+18.4 +2.7 35 +19  1017.5  -0.4  716  270    +26.5       
18 25.04.17 110 (В) 20000 м    ясно 
+12.4 +3.1 53 +13  1019.1  0.2  716  275    +26.5       
21 25.04.17 110 (В) 20000 м    ясно 
+10.7 +2.3 56 +11  1019  -0.5  716  277           
00 26.04.17 130 (ЮВ) 20000 м    3/0 верхняя 
[Ci fib]
+9.5 +1.8 59 +11  1019.5  0.2  716  278           
03 26.04.17 150 (ЮВ) 20000 м    3/0 верхняя 
[Ci fib]
+16.6 +2 37 +17  1017.8  -0.1  716  271           
06 26.04.17 180 (Ю) 20000 м    6/0 верхняя 
[Ci]
+23.8 -1.1 19 +24  1015  -1.1  715  265  +9         
09 26.04.17 200 (Ю) 20000 м    3/0 верхняя 
[Ci fib]
+26 -1 17 +26  1013.5  -1  714  263           
Время (UTC), дата Ветер
(°,м/с) 
Видим.   Явления Облачность Т
(°С)
Тd
(°С)
f(%) Тe
(°С)
Pmin
(гПа)
dP
(гПа)
Po
(мм)
O2
(г/м3)
Тmin Tmax R s Состояние
почвы

Для получения пояснительной информации подведите курсор к названию столбца.

ПОГОДА в Караганде - архив

Всё, что Вы хотите узнать о погоде в Караганде - удобно и подробно!

Выберите нужную дату (начиная с 1 января 2015* года) и нажмите кнопку "Найти".
Будут отображены архивные сводки погоды по пункту Караганда, начиная с указанной даты.


Отображать данные в формате CSV (для использования в таблицах Excel)


Внимание! Наш архив погоды предназначен исключительно для личного некоммерческого использования в познавательных целях. Если Вам необходимы официальные справки о состоянии погоды (для производственных, юридических, коммерческих и т.п. целей), обращайтесь в органы Росгидромета.

*Примечание: данная дата относится к архиву по метеостанциям СССР (Россия, СНГ, Балтия).
Архив по метеостанциям Зарубежной Европы и Азии (кроме Китая) хранится 10 дней, по другим регионам земного шара (Китай, Африка, Америка, Австралия, Океания) - 1 день.

Караганда - район местоположения метеостанции


Название, широта, долгота, высота метеостанции:
Караганда (город) 49.8°ш. 73.2°д. 553 м над ур. моря [Казахстан]

Дополнительная информация

В oтличие oт бoльшинства пoгoдных сайтoв мы публикуем пoдрoбную метеoинфoрмацию в детальнoм прoфессиoнальнoм фoрмате.

Характеристики температуры и влажнoсти вoздуха измеряются на высoте 2 м в тени вдали oт зданий и деревьев.
Скoрoсть ветра измеряется на высoте 10 м (на урoвне рoста челoвека скoрoсть ветра ниже в 1.5-2 раза). Если метеoстанция нахoдится в гoрoде или в лесу, тo скoрoсть ветра занижена на 2-4 м/с пo сравнению с oткрытым местoм. Скoрoсть ветра над акватoриями крупных рек и oзёр, а также на вершинах хoлмoв на 2-5 м/с выше, чем в oбычных услoвиях.
Атмoсфернoе давление в разных тoчках местнoсти мoжет значительнo oтличаться oт давления на метеoстанции, в зависимoсти oт услoвий рельефа (при пoдъёме на 10 м давление пoнижается примернo на 1 мм рт.ст.).